Weather History for KVVV - January, 2012

Change the Weather History Date:

Saturday, January 28, 2012

  Actual Average (KAQP) Record (KAQP)
Temperature  
Mean Temperature 24 °F -  
Max Temperature 32 °F 20 °F 41 °F (2008)
Min Temperature 15 °F 4 °F -20 °F (1997)
Degree Days  
Heating Degree Days 42    
Moisture  
Dew Point 11 °F    
Average Humidity 60    
Maximum Humidity 73    
Minimum Humidity 44    
Precipitation  
Precipitation 0.00 in - - ()
Sea Level Pressure  
Sea Level Pressure 29.98 in    
Wind  
Wind Speed 12 mph (WNW)    
Max Wind Speed 20 mph    
Max Gust Speed 26 mph    
Visibility 10 miles    
Events      
Averages and records for this station are not official NWS values.
T = Trace of Precipitation, MM = Missing Value Source: NWS Daily Summary

Daily Weather History Graph

Daily Weather History Graph

Search for Another Location

Airport or City:

Trip Planner

Search our weather history database for the weather conditions in past years. The results will help you decide how hot, cold, wet, or windy it might be!

Date:

Astronomy

Jan. 28, 2012 Rise Set
Actual Time 7:51 AM CST 5:26 PM CST
Civil Twilight 7:19 AM CST 5:58 PM CST
Nautical Twilight 6:43 AM CST 6:34 PM CST
Astronomical Twilight 6:08 AM CST 7:08 PM CST
Moon 9:54 AM CST (1/28) 11:36 PM CST (1/28)
Length of Visible Light 10h 39m
Length of Day
9h 35m
Waxing Crescent, 28% of the Moon is Illuminated
Jan 28
Waxing Crescent
Jan 30
First Quarter
Feb 7
Full
Feb 14
Last Quarter
Feb 21
New

Hourly Weather History & Observations

Time (CST) Temp. Windchill Dew Point Humidity Pressure Visibility Wind Dir Wind Speed Gust Speed Precip Events Conditions
12:14 AM 24.8 °F 10.7 °F 10.4 °F 54% 29.97 in 10.0 mi WNW 19.6 mph 25.3 mph N/A   Clear
12:34 AM 23.0 °F 10.1 °F 10.4 °F 59% 29.97 in 10.0 mi WNW 15.0 mph 23.0 mph N/A   Clear
12:53 AM 23.0 °F 10.6 °F 10.4 °F 59% 29.97 in 10.0 mi WNW 13.8 mph 19.6 mph N/A   Clear
1:14 AM 23.0 °F 10.1 °F 10.4 °F 59% 29.97 in 10.0 mi WNW 15.0 mph 26.5 mph N/A   Clear
1:34 AM 21.2 °F 8.3 °F 10.4 °F 63% 29.98 in 10.0 mi WNW 13.8 mph 19.6 mph N/A   Clear
1:54 AM 21.2 °F 7.3 °F 10.4 °F 63% 29.98 in 10.0 mi WNW 16.1 mph 20.7 mph N/A   Clear
2:14 AM 21.2 °F 8.3 °F 10.4 °F 63% 29.98 in 10.0 mi WNW 13.8 mph 19.6 mph N/A   Clear
2:34 AM 21.2 °F 9.5 °F 10.4 °F 63% 29.99 in 10.0 mi WNW 11.5 mph 18.4 mph N/A   Clear
2:54 AM 21.2 °F 8.9 °F 10.4 °F 63% 29.99 in 10.0 mi WNW 12.7 mph 19.6 mph N/A   Clear
3:14 AM 19.4 °F 6.6 °F 10.4 °F 68% 29.99 in 10.0 mi WNW 12.7 mph - N/A   Clear
3:34 AM 19.4 °F 6.0 °F 10.4 °F 68% 29.99 in 10.0 mi WNW 13.8 mph 23.0 mph N/A   Clear
3:54 AM 19.4 °F 6.0 °F 10.4 °F 68% 29.99 in 10.0 mi WNW 13.8 mph 20.7 mph N/A   Clear
4:13 AM 19.4 °F 7.2 °F 8.6 °F 63% 29.99 in 10.0 mi WNW 11.5 mph - N/A   Clear
4:34 AM 19.4 °F 6.6 °F 8.6 °F 63% 29.99 in 10.0 mi WNW 12.7 mph - N/A   Clear
4:53 AM 19.4 °F 8.6 °F 8.6 °F 63% 29.99 in 10.0 mi WNW 9.2 mph - N/A   Clear
5:14 AM 17.6 °F 5.0 °F 8.6 °F 68% 29.99 in 10.0 mi NW 11.5 mph - N/A   Clear
5:34 AM 19.4 °F 8.6 °F 8.6 °F 63% 29.98 in 10.0 mi WNW 9.2 mph - N/A   Clear
5:54 AM 17.6 °F 6.4 °F 8.6 °F 68% 29.99 in 10.0 mi WNW 9.2 mph - N/A   Clear
6:13 AM 17.6 °F 5.7 °F 8.6 °F 68% 29.99 in 10.0 mi WNW 10.4 mph - N/A   Clear
6:34 AM 17.6 °F 5.7 °F 8.6 °F 68% 29.99 in 10.0 mi WNW 10.4 mph - N/A   Clear
6:54 AM 15.8 °F 5.1 °F 6.8 °F 68% 30.00 in 10.0 mi WNW 8.1 mph - N/A   Clear
7:13 AM 15.8 °F 4.2 °F 8.6 °F 73% 30.00 in 10.0 mi NW 9.2 mph - N/A   Clear
7:34 AM 17.6 °F 7.3 °F 8.6 °F 68% 30.00 in 10.0 mi NW 8.1 mph - N/A   Clear
7:54 AM 17.6 °F 7.3 °F 8.6 °F 68% 30.00 in 10.0 mi NW 8.1 mph - N/A   Clear
8:13 AM 17.6 °F 7.3 °F 8.6 °F 68% 30.00 in 10.0 mi NW 8.1 mph - N/A   Clear
8:34 AM 19.4 °F 7.9 °F 8.6 °F 63% 30.00 in 10.0 mi WNW 10.4 mph - N/A   Clear
8:54 AM 19.4 °F 7.9 °F 8.6 °F 63% 30.00 in 10.0 mi WNW 10.4 mph - N/A   Clear
9:13 AM 19.4 °F 9.5 °F 8.6 °F 63% 30.00 in 10.0 mi WNW 8.1 mph - N/A   Scattered Clouds
9:34 AM 21.2 °F 10.9 °F 10.4 °F 63% 30.00 in 10.0 mi WNW 9.2 mph 17.3 mph N/A   Mostly Cloudy
9:54 AM 23.0 °F 11.7 °F 10.4 °F 59% 30.00 in 10.0 mi WNW 11.5 mph - N/A   Overcast
10:13 AM 24.8 °F 14.6 °F 10.4 °F 54% 30.00 in 10.0 mi WNW 10.4 mph - N/A   Mostly Cloudy
10:34 AM 24.8 °F 15.3 °F 10.4 °F 54% 30.01 in 10.0 mi WNW 9.2 mph - N/A   Mostly Cloudy
10:53 AM 24.8 °F 14.0 °F 10.4 °F 54% 30.01 in 10.0 mi WNW 11.5 mph 17.3 mph N/A   Overcast
11:13 AM 26.6 °F 16.2 °F 10.4 °F 51% 30.01 in 10.0 mi WNW 11.5 mph - N/A   Overcast
11:34 AM 26.6 °F 17.5 °F 10.4 °F 51% 30.01 in 10.0 mi WNW 9.2 mph - N/A   Overcast
11:54 AM 26.6 °F 18.2 °F 10.4 °F 51% 30.00 in 10.0 mi WNW 8.1 mph - N/A   Mostly Cloudy
12:13 PM 28.4 °F 19.1 °F 10.4 °F 47% 29.99 in 10.0 mi WNW 10.4 mph - N/A   Mostly Cloudy
12:34 PM 28.4 °F 19.7 °F 12.2 °F 51% 29.99 in 10.0 mi WNW 9.2 mph - N/A   Overcast
12:54 PM 28.4 °F 20.4 °F 12.2 °F 51% 29.99 in 10.0 mi WNW 8.1 mph - N/A   Overcast
1:14 PM 30.2 °F 21.3 °F 12.2 °F 47% 29.98 in 10.0 mi WNW 10.4 mph - N/A   Overcast
1:34 PM 32.0 °F 23.6 °F 12.2 °F 44% 29.98 in 10.0 mi WNW 10.4 mph 17.3 mph N/A   Overcast
1:53 PM 30.2 °F 21.3 °F 12.2 °F 47% 29.97 in 10.0 mi West 10.4 mph - N/A   Scattered Clouds
2:14 PM 30.2 °F 20.8 °F 12.2 °F 47% 29.97 in 10.0 mi West 11.5 mph - N/A   Clear
2:34 PM 30.2 °F 19.3 °F 12.2 °F 47% 29.97 in 10.0 mi West 15.0 mph 20.7 mph N/A   Clear
2:54 PM 30.2 °F 20.2 °F 14.0 °F 51% 29.97 in 10.0 mi WNW 12.7 mph 18.4 mph N/A   Clear
3:14 PM 30.2 °F 21.3 °F 15.8 °F 55% 29.97 in 10.0 mi WNW 10.4 mph - N/A   Clear
3:34 PM 30.2 °F 22.6 °F 15.8 °F 55% 29.97 in 10.0 mi West 8.1 mph - N/A   Clear
3:54 PM 30.2 °F 22.6 °F 15.8 °F 55% 29.97 in 10.0 mi West 8.1 mph - N/A   Clear
4:14 PM 30.2 °F 21.3 °F 17.6 °F 60% 29.97 in 10.0 mi West 10.4 mph - N/A   Clear
4:33 PM 28.4 °F 19.7 °F 17.6 °F 64% 29.97 in 10.0 mi West 9.2 mph - N/A   Clear
4:54 PM 28.4 °F 20.4 °F 17.6 °F 64% 29.96 in 10.0 mi WNW 8.1 mph - N/A   Scattered Clouds
5:14 PM 30.2 °F 21.9 °F 17.6 °F 60% 29.96 in 10.0 mi West 9.2 mph - N/A   Mostly Cloudy
5:33 PM 30.2 °F 25.4 °F 17.6 °F 60% 29.95 in 10.0 mi West 4.6 mph - N/A   Overcast
5:54 PM 28.4 °F 22.2 °F 17.6 °F 64% 29.94 in 10.0 mi West 5.8 mph - N/A   Overcast
6:14 PM 28.4 °F 23.3 °F 19.4 °F 69% 29.93 in 10.0 mi WSW 4.6 mph - N/A   Overcast
6:33 PM 30.2 °F 24.3 °F 19.4 °F 64% 29.93 in 10.0 mi West 5.8 mph - N/A   Overcast
6:54 PM 30.2 °F 18.9 °F 21.2 °F 69% 29.93 in 10.0 mi WNW 16.1 mph 23.0 mph N/A   Overcast
7:14 PM 28.4 °F 17.0 °F 26.6 °F 93% 29.93 in 1.2 mi WNW 15.0 mph 23.0 mph N/A Snow Light Snow
7:33 PM 28.4 °F 18.0 °F 24.8 °F 86% 29.94 in 10.0 mi NW 12.7 mph 20.7 mph N/A   Overcast
7:54 PM 28.4 °F 17.5 °F 24.8 °F 86% 29.95 in 10.0 mi NW 13.8 mph 23.0 mph N/A Snow Light Snow
8:14 PM 26.6 °F 15.2 °F 24.8 °F 93% 29.95 in 10.0 mi NW 13.8 mph - N/A   Overcast
8:33 PM 26.6 °F 16.2 °F 23.0 °F 86% 29.96 in 10.0 mi NNW 11.5 mph - N/A Snow Light Snow
8:54 PM 26.6 °F 15.7 °F 23.0 °F 86% 29.96 in 10.0 mi NNW 12.7 mph 18.4 mph N/A Snow Light Snow
9:14 PM 24.8 °F 13.4 °F 21.2 °F 86% 29.97 in 10.0 mi NW 12.7 mph 17.3 mph N/A Snow Light Snow
9:33 PM 24.8 °F 12.4 °F 19.4 °F 80% 29.97 in 10.0 mi NNW 15.0 mph 19.6 mph N/A   Scattered Clouds
9:54 PM 24.8 °F 12.9 °F 19.4 °F 80% 29.98 in 10.0 mi NW 13.8 mph - N/A   Mostly Cloudy
10:14 PM 23.0 °F 11.7 °F 19.4 °F 86% 29.98 in 10.0 mi NW 11.5 mph - N/A   Scattered Clouds
10:34 PM 24.8 °F 14.6 °F 19.4 °F 80% 29.98 in 10.0 mi NNW 10.4 mph - N/A   Mostly Cloudy
10:54 PM 24.8 °F 14.6 °F 19.4 °F 80% 30.00 in 10.0 mi NNW 10.4 mph 16.1 mph N/A   Mostly Cloudy
11:14 PM 24.8 °F 16.1 °F 19.4 °F 80% 30.01 in 10.0 mi NNW 8.1 mph - N/A Snow Light Snow
11:33 PM 23.0 °F 11.1 °F 19.4 °F 86% 30.01 in 10.0 mi North 12.7 mph - N/A Snow Light Snow
11:54 PM 23.0 °F 11.7 °F 17.6 °F 80% 30.02 in 10.0 mi North 11.5 mph - N/A Snow Light Snow